TimeCDT,TemperatureF,Dew PointF,Humidity,Sea Level PressureIn,VisibilityMPH,Wind Direction,Wind SpeedMPH,Gust SpeedMPH,PrecipitationIn,Events,Conditions,WindDirDegrees,DateUTC
12:53 AM,51.1,37.9,61,30.00,10.0,North,16.1,-,N/A,,Mostly Cloudy,350,2012-11-03 05:53:00
1:53 AM,48.9,35.1,59,30.01,10.0,North,18.4,25.3,N/A,,Scattered Clouds,350,2012-11-03 06:53:00
2:53 AM,48.0,32.0,54,30.03,10.0,North,16.1,21.9,N/A,,Partly Cloudy,360,2012-11-03 07:53:00
3:53 AM,46.0,32.0,58,30.05,10.0,North,13.8,-,N/A,,Partly Cloudy,350,2012-11-03 08:53:00
4:53 AM,44.1,33.1,65,30.08,10.0,North,12.7,-,N/A,,Clear,360,2012-11-03 09:53:00
5:53 AM,42.1,33.1,70,30.11,9.0,North,12.7,-,N/A,,Clear,350,2012-11-03 10:53:00
6:53 AM,41.0,33.1,73,30.14,9.0,North,10.4,-,N/A,,Partly Cloudy,350,2012-11-03 11:53:00
7:53 AM,39.9,32.0,73,30.16,10.0,North,9.2,-,N/A,,Scattered Clouds,350,2012-11-03 12:53:00
8:53 AM,41.0,32.0,70,30.19,10.0,North,6.9,-,N/A,,Scattered Clouds,360,2012-11-03 13:53:00
9:53 AM,45.0,32.0,60,30.21,10.0,North,11.5,-,N/A,,Mostly Cloudy,10,2012-11-03 14:53:00
10:53 AM,50.0,33.1,52,30.21,10.0,North,12.7,-,N/A,,Mostly Cloudy,10,2012-11-03 15:53:00
11:53 AM,53.1,33.1,47,30.22,10.0,North,10.4,-,N/A,,Mostly Cloudy,10,2012-11-03 16:53:00
12:53 PM,57.9,34.0,41,30.19,10.0,North,15.0,-,N/A,,Mostly Cloudy,10,2012-11-03 17:53:00
1:53 PM,60.1,34.0,38,30.17,10.0,North,10.4,-,N/A,,Scattered Clouds,10,2012-11-03 18:53:00
2:53 PM,63.0,34.0,34,30.16,10.0,North,12.7,-,N/A,,Mostly Cloudy,360,2012-11-03 19:53:00
3:53 PM,64.0,34.0,33,30.16,10.0,North,9.2,-,N/A,,Mostly Cloudy,10,2012-11-03 20:53:00
4:53 PM,59.0,34.0,39,30.17,10.0,North,8.1,-,N/A,,Mostly Cloudy,10,2012-11-03 21:53:00
5:53 PM,57.9,35.1,42,30.17,10.0,NNE,5.8,-,N/A,,Mostly Cloudy,20,2012-11-03 22:53:00
6:53 PM,53.1,34.0,48,30.18,10.0,Calm,Calm,-,N/A,,Scattered Clouds,0,2012-11-03 23:53:00
7:53 PM,48.0,35.1,61,30.20,10.0,Calm,Calm,-,N/A,,Scattered Clouds,0,2012-11-04 00:53:00
8:53 PM,48.9,37.0,64,30.20,10.0,Calm,Calm,-,N/A,,Scattered Clouds,0,2012-11-04 01:53:00
9:53 PM,44.1,36.0,73,30.21,10.0,Calm,Calm,-,N/A,,Scattered Clouds,0,2012-11-04 02:53:00
10:53 PM,41.0,35.1,79,30.22,10.0,Calm,Calm,-,N/A,,Scattered Clouds,0,2012-11-04 03:53:00
11:53 PM,44.1,37.0,76,30.22,10.0,Calm,Calm,-,N/A,,Scattered Clouds,0,2012-11-04 04:53:00